timestamp,surface_pressure_avg,surface_temp_avg,battery_voltage,lat,long
2021-08-09 00:09:01+00:00,361.8346,17.26,12.73,47.84626,-54.09684
2021-08-09 00:19:01+00:00,357.6713,17.2,12.73,47.84626,-54.09684
2021-08-09 00:29:01+00:00,354.8912,17.1,12.73,47.84626,-54.09684
2021-08-09 00:39:01+00:00,353.9714,17.29,12.73,47.84626,-54.09684
2021-08-09 00:49:01+00:00,351.2863,17.42,12.73,47.84626,-54.09684
2021-08-09 00:59:01+00:00,346.6529,17.6,12.73,47.84626,-54.09684
2021-08-09 01:09:01+00:00,343.05800000000005,17.49,12.73,47.84626,-54.09684
2021-08-09 01:19:01+00:00,342.6863,17.68,12.73,47.84626,-54.09684
2021-08-09 01:29:01+00:00,339.3146,17.9,12.73,47.84626,-54.09684
2021-08-09 01:39:01+00:00,333.2664,17.6,12.73,47.84626,-54.09684
2021-08-09 01:49:01+00:00,331.1729,17.2,12.73,47.84626,-54.09684
2021-08-09 01:59:01+00:00,330.1097,17.28,12.73,47.84626,-54.09684
2021-08-09 02:09:01+00:00,323.2047,17.4,12.73,47.84626,-54.09684
2021-08-09 02:19:01+00:00,314.08299999999997,17.41,12.73,47.84626,-54.09684
2021-08-09 02:29:01+00:00,309.5897,17.4,12.73,47.84626,-54.09684
2021-08-09 02:39:01+00:00,303.918,17.5,12.73,47.84626,-54.09684
2021-08-09 02:49:01+00:00,292.3047,17.6,12.73,47.84626,-54.09684
2021-08-09 02:59:01+00:00,282.063,17.3,12.73,47.84626,-54.09684
2021-08-09 03:09:01+00:00,275.6664,17.2,12.73,47.84626,-54.09684
2021-08-09 03:19:00+00:00,269.5397,17.32,12.73,47.84626,-54.09684
2021-08-09 03:29:00+00:00,260.2447,17.2,12.73,47.84626,-54.09684
2021-08-09 03:39:00+00:00,250.9847,17.27,12.73,47.84626,-54.09684
2021-08-09 03:49:00+00:00,245.718,17.45,12.73,47.84626,-54.09684
2021-08-09 03:59:00+00:00,238.6231,17.6,12.73,47.84626,-54.09684
2021-08-09 04:09:00+00:00,228.0981,17.6,12.73,47.84626,-54.09684
2021-08-09 04:19:00+00:00,218.9015,17.7,12.65,47.84626,-54.09684
2021-08-09 04:29:00+00:00,214.7914,17.7,12.65,47.84626,-54.09684
2021-08-09 04:39:00+00:00,208.2498,17.87,12.65,47.84626,-54.09684
2021-08-09 04:49:00+00:00,196.8115,17.9,12.65,47.84626,-54.09684
2021-08-09 04:59:00+00:00,193.2615,18.22,12.65,47.84626,-54.09684
2021-08-09 05:09:00+00:00,196.6614,17.84,12.65,47.84626,-54.09684
2021-08-09 05:19:01+00:00,191.7948,18.05,12.65,47.84626,-54.09684
2021-08-09 05:29:01+00:00,184.5048,18.1,12.65,47.84626,-54.09684
2021-08-09 05:39:01+00:00,184.8131,18.1,12.65,47.84626,-54.09684
2021-08-09 05:49:01+00:00,185.8931,18.1,12.65,47.84626,-54.09684
2021-08-09 05:59:01+00:00,181.0815,18.1,12.65,47.84626,-54.09684
2021-08-09 06:09:01+00:00,177.2548,18.1,12.65,47.84626,-54.09684
2021-08-09 06:19:01+00:00,181.5481,18.0,12.65,47.84626,-54.09684
2021-08-09 06:29:01+00:00,185.3248,17.9,12.65,47.84626,-54.09684
2021-08-09 06:39:01+00:00,182.5365,17.9,12.65,47.84626,-54.09684
2021-08-09 06:49:01+00:00,186.9581,17.9,12.65,47.84626,-54.09684
2021-08-09 06:59:01+00:00,196.3115,17.9,12.65,47.84626,-54.09684
2021-08-09 07:09:01+00:00,199.1331,17.76,12.65,47.84626,-54.09684
2021-08-09 07:19:01+00:00,199.5665,17.8,12.57,47.84626,-54.09684
2021-08-09 07:29:01+00:00,204.1948,17.77,12.57,47.84626,-54.09684
2021-08-09 07:39:01+00:00,209.6631,17.7,12.57,47.84626,-54.09684
2021-08-09 07:49:01+00:00,212.2548,17.7,12.57,47.84626,-54.09684
2021-08-09 07:59:01+00:00,216.0048,17.69,12.57,47.84626,-54.09684
2021-08-09 08:09:01+00:00,220.2764,17.7,12.57,47.84626,-54.09684
2021-08-09 08:19:01+00:00,226.2331,17.7,12.57,47.84626,-54.09684
2021-08-09 08:29:01+00:00,233.3731,17.6,12.57,47.84626,-54.09684
2021-08-09 08:39:01+00:00,239.4164,17.6,12.57,47.84626,-54.09684
2021-08-09 08:49:01+00:00,240.7364,17.6,12.57,47.84626,-54.09684
2021-08-09 08:59:01+00:00,243.7481,17.5,12.57,47.84626,-54.09684
2021-08-09 09:09:01+00:00,249.0014,17.1,12.57,47.84626,-54.09684
2021-08-09 09:19:01+00:00,255.6598,17.0,12.65,47.84626,-54.09684
2021-08-09 09:29:01+00:00,259.5214,17.06,12.65,47.84626,-54.09684
2021-08-09 09:39:01+00:00,263.1264,17.0,12.65,47.84626,-54.09684
2021-08-09 09:49:01+00:00,268.1464,16.99,12.65,47.84626,-54.09684
2021-08-09 09:59:01+00:00,273.7564,16.94,12.65,47.84626,-54.09684
2021-08-09 10:09:01+00:00,280.0048,16.89,12.65,47.84626,-54.09684
2021-08-09 10:19:01+00:00,286.093,16.88,13.44,47.84626,-54.09684
2021-08-09 10:29:01+00:00,292.4231,16.92,13.44,47.84626,-54.09684
2021-08-09 10:39:01+00:00,299.843,17.03,13.44,47.84626,-54.09684
2021-08-09 10:49:01+00:00,305.4064,17.0,13.44,47.84626,-54.09684
2021-08-09 10:59:01+00:00,311.9531,16.9,13.44,47.84626,-54.09684
2021-08-09 11:09:01+00:00,317.1829,16.8,13.44,47.84626,-54.09684
2021-08-09 11:19:01+00:00,322.5862,16.8,14.16,47.84626,-54.09684
2021-08-09 11:29:01+00:00,325.7896,16.8,14.16,47.84626,-54.09684
2021-08-09 11:39:01+00:00,329.2881,16.8,14.16,47.84626,-54.09684
2021-08-09 11:49:01+00:00,331.0762,16.87,14.16,47.84626,-54.09684
2021-08-09 11:59:01+00:00,332.5912,16.87,14.16,47.84626,-54.09684
2021-08-09 12:09:01+00:00,333.2697,16.8,14.16,47.84626,-54.09684
2021-08-09 12:19:01+00:00,332.4480000000001,16.8,14.32,47.84626,-54.09684
2021-08-09 12:29:01+00:00,328.8046,16.84,14.32,47.84626,-54.09684
2021-08-09 12:39:01+00:00,328.0063,16.82,14.32,47.84626,-54.09684
2021-08-09 12:49:01+00:00,327.8263,16.85,14.32,47.84626,-54.09684
2021-08-09 12:59:01+00:00,324.0563,16.85,14.32,47.84626,-54.09684
2021-08-09 13:09:01+00:00,321.113,16.8,14.32,47.84626,-54.09684
2021-08-09 13:19:01+00:00,319.6063,16.8,14.4,47.84626,-54.09684
2021-08-09 13:29:01+00:00,315.4296,16.8,14.4,47.84626,-54.09684
2021-08-09 13:39:01+00:00,309.6848,16.8,14.4,47.84626,-54.09684
2021-08-09 13:49:01+00:00,307.1329,16.86,14.4,47.84626,-54.09684
2021-08-09 13:59:01+00:00,305.4246,16.9,14.4,47.84626,-54.09684
2021-08-09 14:09:01+00:00,298.3798,17.03,14.4,47.84626,-54.09684
2021-08-09 14:19:00+00:00,291.3597,17.0,14.4,47.84626,-54.09684
2021-08-09 14:29:00+00:00,287.0614,17.0,14.4,47.84626,-54.09684
2021-08-09 14:39:00+00:00,280.8081,17.12,14.4,47.84626,-54.09684
2021-08-09 14:49:00+00:00,274.248,17.3,14.4,47.84626,-54.09684
2021-08-09 14:59:00+00:00,268.0164,17.5,14.4,47.84626,-54.09684
2021-08-09 15:09:00+00:00,259.3464,17.6,14.4,47.84626,-54.09684
2021-08-09 15:19:01+00:00,249.1114,17.7,14.32,47.84626,-54.09684
2021-08-09 15:29:01+00:00,243.1681,17.72,14.32,47.84626,-54.09684
2021-08-09 15:39:01+00:00,238.7115,17.78,14.32,47.84626,-54.09684
2021-08-09 15:49:01+00:00,228.4515,17.79,14.32,47.84626,-54.09684
2021-08-09 15:59:01+00:00,217.9031,17.8,14.32,47.84626,-54.09684
2021-08-09 16:09:01+00:00,212.5381,17.8,14.32,47.84626,-54.09684
2021-08-09 16:19:01+00:00,206.9281,17.8,14.24,47.84626,-54.09684
2021-08-09 16:29:01+00:00,197.4064,17.8,14.24,47.84626,-54.09684
2021-08-09 16:39:01+00:00,188.7798,17.8,14.24,47.84626,-54.09684
2021-08-09 16:49:01+00:00,185.0248,17.88,14.24,47.84626,-54.09684
2021-08-09 16:59:01+00:00,183.9365,17.9,14.24,47.84626,-54.09684
2021-08-09 17:09:01+00:00,178.8115,17.9,14.24,47.84626,-54.09684
2021-08-09 17:19:01+00:00,176.6531,18.0,14.08,47.84626,-54.09684
2021-08-09 17:29:01+00:00,176.8715,18.0,14.08,47.84626,-54.09684
2021-08-09 17:39:01+00:00,173.0865,18.04,14.08,47.84626,-54.09684
2021-08-09 17:49:01+00:00,172.1598,18.05,14.08,47.84626,-54.09684
2021-08-09 17:59:01+00:00,173.9232,18.0,14.08,47.84626,-54.09684
2021-08-09 18:09:01+00:00,173.7665,18.0,14.08,47.84626,-54.09684
2021-08-09 18:19:01+00:00,172.2747,17.98,13.92,47.84626,-54.09684
2021-08-09 18:29:01+00:00,171.9149,17.95,13.92,47.84626,-54.09684
2021-08-09 18:39:01+00:00,173.6248,17.9,13.92,47.84626,-54.09684
2021-08-09 18:49:01+00:00,174.3215,17.9,13.92,47.84626,-54.09684
2021-08-09 18:59:01+00:00,176.7115,17.8,13.92,47.84626,-54.09684
2021-08-09 19:09:01+00:00,179.6415,17.7,13.92,47.84626,-54.09684
2021-08-09 19:19:01+00:00,181.3782,17.6,13.68,47.84626,-54.09684
2021-08-09 19:29:01+00:00,185.6848,17.3,13.68,47.84626,-54.09684
2021-08-09 19:39:01+00:00,189.9031,17.36,13.68,47.84626,-54.09684
2021-08-09 19:49:01+00:00,192.0848,17.3,13.68,47.84626,-54.09684
2021-08-09 19:59:01+00:00,194.3815,17.3,13.68,47.84626,-54.09684
2021-08-09 20:09:01+00:00,197.6348,17.3,13.68,47.84626,-54.09684
2021-08-09 20:19:01+00:00,202.6497,17.34,13.68,47.84626,-54.09684
2021-08-09 20:29:01+00:00,209.5482,17.38,13.68,47.84626,-54.09684
2021-08-09 20:39:01+00:00,217.0748,17.4,13.68,47.84626,-54.09684
2021-08-09 20:49:01+00:00,221.2914,17.4,13.68,47.84626,-54.09684
2021-08-09 20:59:01+00:00,225.6714,17.44,13.68,47.84626,-54.09684
2021-08-09 21:09:01+00:00,233.2014,17.4,13.68,47.84626,-54.09684
2021-08-09 21:19:01+00:00,240.4414,17.31,13.53,47.84626,-54.09684
2021-08-09 21:29:01+00:00,245.2314,17.2,13.53,47.84626,-54.09684
2021-08-09 21:39:01+00:00,252.1515,17.17,13.53,47.84626,-54.09684
2021-08-09 21:49:01+00:00,258.913,17.1,13.53,47.84626,-54.09684
2021-08-09 21:59:01+00:00,265.0148,17.0,13.53,47.84626,-54.09684
2021-08-09 22:09:01+00:00,272.9064,17.0,13.53,47.84626,-54.09684
2021-08-09 22:19:01+00:00,284.1964,16.9,13.37,47.84626,-54.09684
2021-08-09 22:29:01+00:00,292.7814,16.96,13.37,47.84626,-54.09684
2021-08-09 22:39:01+00:00,301.1631,16.98,13.37,47.84626,-54.09684
2021-08-09 22:49:01+00:00,311.818,16.99,13.37,47.84626,-54.09684
2021-08-09 22:59:01+00:00,321.6697,16.99,13.37,47.84626,-54.09684
2021-08-09 23:09:01+00:00,325.8813,17.0,13.37,47.84626,-54.09684
2021-08-09 23:19:01+00:00,331.3280000000001,16.87,13.05,47.84626,-54.09684
2021-08-09 23:29:01+00:00,339.7564,16.6,13.05,47.84626,-54.09684
2021-08-09 23:39:01+00:00,344.6246,16.68,13.05,47.84626,-54.09684
2021-08-09 23:49:01+00:00,344.7062,16.78,13.05,47.84626,-54.09684
2021-08-09 23:59:01+00:00,348.3862,16.8,13.05,47.84626,-54.09684
